[[{"header":{"parameterUnit":"m.s-1","parameterCategory":1,"la1":30.2991,"la2":30.254,"lo1":-89.0895,"lo2":-89.0444,"dy":0.0017,"dx":0.0017,"nx":28,"ny":28,"refTime":"2024-05-10T09:00:00:Z","depth":0,"parameterNumber":2,"parameterNumberName":"U-component_of_WINDS"},"data":[0,0,0,0,0,0,0,0,0,0,0,0,0,0,0,0,0,0,0,0,0,0,0,0,0,0,0,0,0,0,0,0,0,0,0,0,0,0,0,0,0,0,0,0,0,0,0,0,0,0,0,0,0,0,0,0,0,0,-1.8941,-1.894,0,-1.8886,-1.8885,-1.8884,-1.8821,-1.882,-1.8819,-1.8818,-1.8762,-1.8761,-1.876,0,0,0,0,0,0,0,0,0,0,0,0,0,-1.899,-1.899,-1.8941,-1.894,-1.8939,-1.8886,-1.8885,-1.8884,-1.8821,-1.882,-1.8819,-1.8818,-1.8762,-1.8761,-1.876,0,0,0,0,0,0,0,0,0,0,0,0,0,-1.8956,-1.899,-1.8941,-1.8901,-1.8897,-1.8886,-1.8885,-1.8884,-1.8821,-1.882,-1.8819,-1.8817,-1.8762,-1.8761,-1.876,-1.8783,0,0,-1.8757,-1.8757,0,0,0,0,0,0,0,0,-1.8958,-1.8954,-1.8908,-1.8904,-1.8899,-1.8859,-1.8882,-1.885,-1.8822,-1.885,-1.8818,-1.8817,-1.8795,-1.8791,-1.8784,-1.878,-1.8778,-1.8757,-1.8757,-1.8756,-1.8756,0,0,0,0,0,0,0,-1.896,-1.8956,-1.8919,-1.8907,-1.8902,-1.8886,-1.888,-1.8875,-1.8831,-1.8848,-1.8843,-1.8837,-1.8792,-1.8785,-1.8782,-1.8777,-1.8757,-1.8756,-1.8756,-1.8755,-1.8789,-1.8791,0,0,0,0,0,0,-1.8969,-1.8958,-1.8921,-1.8917,-1.8926,-1.8887,-1.8879,-1.8873,-1.8831,-1.8823,-1.8839,-1.8835,-1.8787,-1.8783,-1.878,-1.8805,-1.8756,-1.8755,-1.8755,-1.8788,-1.879,-1.8791,0,0,0,0,0,0,-1.897,-1.8966,-1.8923,-1.8936,-1.893,-1.8887,-1.8881,-1.8873,-1.8866,-1.8824,-1.8816,-1.8839,-1.8786,-1.8781,-1.8783,-1.8802,-1.8755,-1.8754,-1.8786,-1.8789,-1.8791,-1.8854,0,0,0,0,0,0,-1.8972,-1.8967,-1.8975,-1.8937,-1.8929,-1.8927,-1.8882,-1.8873,-1.8864,-1.8858,-1.8823,-1.8816,-1.8785,-1.8785,-1.8782,-1.88,-1.8753,-1.8784,-1.8787,-1.879,-1.885,-1.8858,-1.8865,0,0,0,0,0,-1.8974,-1.8995,-1.8976,-1.8972,-1.8939,-1.8928,-1.8924,-1.8888,-1.8866,-1.8874,-1.8847,-1.8817,-1.88,-1.8785,-1.8782,-1.88,-1.8783,-1.8787,-1.879,-1.8847,-1.8856,-1.8865,0,0,0,0,0,0,-1.9036,-1.8989,-1.8968,-1.8977,-1.8957,-1.8918,-1.8927,-1.8899,-1.8885,-1.888,-1.8836,-1.8828,-1.8835,-1.8817,-1.8802,-1.8819,-1.8787,-1.879,-1.8832,-1.884,-1.8848,-1.8853,-1.8753,0,0,0,0,0,-1.9051,-1.9047,-1.9006,-1.9018,-1.9009,-1.897,-1.8964,-1.8938,-1.8915,-1.8906,-1.888,-1.8859,-1.8849,-1.8843,-1.8832,-1.8846,-1.8838,-1.8857,-1.8864,-1.8871,-1.8874,-1.8881,-1.8889,-1.8802,-1.8802,-1.8802,0,0,-1.9082,-1.9056,-1.9056,-1.903,-1.9012,-1.9008,-1.8963,-1.8961,-1.8958,-1.8906,-1.8906,-1.8886,-1.886,-1.8868,-1.887,-1.8853,-1.8896,-1.8875,-1.888,-1.888,-1.8885,-1.8894,-1.8901,-1.8804,-1.8804,-1.8804,0,0,-1.9137,-1.9116,-1.9125,-1.9107,-1.908,-1.9053,-1.9055,-1.9019,-1.9004,-1.9004,-1.8965,-1.896,-1.8943,-1.8927,-1.8916,-1.8964,-1.8935,-1.8961,-1.9001,-1.9008,-1.9015,-1.9021,-1.9039,-1.9046,-1.8964,-1.8964,-1.8964,0,-1.9179,-1.9172,-1.9133,-1.9133,-1.9123,-1.9076,-1.9084,-1.9069,-1.9039,-1.9033,-1.9014,-1.8992,-1.8971,-1.8976,-1.8987,-1.898,-1.8981,-1.8966,-1.9017,-1.9023,-1.9027,-1.9044,-1.9051,-1.8968,-1.8967,-1.8967,-1.8967,0,-1.9226,-1.9222,-1.9232,-1.9205,-1.9195,-1.92,-1.9161,-1.9156,-1.9131,-1.9107,-1.9107,-1.9079,-1.9062,-1.906,-1.9035,-1.9061,-1.9051,-1.9025,-1.8992,-1.904,-1.9055,-1.9061,-1.8973,-1.8971,-1.897,-1.897,0,0,-1.9321,-1.9271,-1.9275,-1.9263,-1.9228,-1.9224,-1.9226,-1.9209,-1.9206,-1.9187,-1.9188,-1.9175,-1.915,-1.9138,-1.9111,-1.9117,-1.9158,-1.909,-1.9088,-1.9105,-1.9186,-1.9207,-1.9215,-1.9138,-1.9139,-1.914,-1.9188,0,-1.937,-1.9372,-1.9336,-1.9347,-1.9343,-1.9298,-1.9299,-1.9278,-1.9255,-1.9248,-1.9222,-1.9214,-1.9182,-1.9175,-1.9179,-1.9152,-1.9174,-1.9148,-1.9139,-1.914,-1.9149,-1.9223,-1.9245,-1.9292,-1.9194,-1.9195,-1.9196,0,-1.9429,-1.9414,-1.9425,-1.939,-1.9387,-1.9389,-1.9371,-1.9364,-1.934,-1.9322,-1.9309,-1.9277,-1.9277,-1.9244,-1.9243,-1.9226,-1.922,-1.9207,-1.9208,-1.9207,-1.9172,-1.9226,-1.9306,-1.9314,-1.9204,-1.9204,-1.9203,0,-1.9499,-1.948,-1.9485,-1.9475,-1.9434,-1.9437,-1.942,-1.9394,-1.9386,-1.9369,-1.9364,-1.9347,-1.9339,-1.9327,-1.9292,-1.9271,-1.9295,-1.9259,-1.9282,-1.9283,-1.929,-1.9291,-1.9373,-1.9284,-1.9284,-1.9284,-1.9283,0,-1.956,-1.9569,-1.9515,-1.9519,-1.9527,-1.9485,-1.9495,-1.9473,-1.945,-1.9448,-1.9407,-1.9406,-1.9359,-1.9352,-1.9324,-1.9329,-1.9325,-1.9311,-1.9304,-1.9316,-1.9318,-1.9313,-1.9309,-1.9285,-1.9285,-1.9285,-1.9284,0,-1.964,-1.9604,-1.9606,-1.9567,-1.9558,-1.9566,-1.9533,-1.9534,-1.9508,-1.9506,-1.9503,-1.9462,-1.9452,-1.9415,-1.9397,-1.9378,-1.9392,-1.9376,-1.94,-1.9396,-1.9421,-1.942,-1.9504,-1.9514,-1.9417,-1.9418,-1.9419,0,-1.9682,-1.9688,-1.9649,-1.9645,-1.963,-1.9623,-1.9615,-1.9574,-1.9567,-1.9539,-1.9543,-1.953,-1.9518,-1.9504,-1.9473,-1.9459,-1.9444,-1.9474,-1.9442,-1.9454,-1.9446,-1.9447,-1.9448,-1.9482,-1.9484,-1.9485,-1.9485,0,-1.976,-1.9743,-1.9732,-1.9716,-1.9707,-1.9692,-1.9675,-1.9674,-1.9627,-1.9621,-1.9611,-1.9602,-1.9582,-1.957,-1.955,-1.9533,-1.9502,-1.9496,-1.95,-1.9514,-1.9528,-1.9522,-1.9422,-1.9495,-1.9494,-1.9493,-1.9492,-1.9492,-1.9824,-1.9827,-1.9801,-1.9791,-1.9773,-1.9758,-1.9757,-1.9731,-1.9721,-1.9703,-1.9678,-1.9672,-1.9646,-1.9616,-1.9601,-1.9595,-1.9578,-1.9584,-1.9586,-1.9589,-1.9595,-1.9527,-1.9591,-1.9591,-1.959,-1.959,-1.959,0,-1.9902,-1.9882,-1.9873,-1.985,-1.9843,-1.9813,-1.9792,-1.9788,-1.9782,-1.9761,-1.975,-1.9738,-1.9726,-1.9693,-1.9678,-1.9679,-1.9665,-1.9677,-1.9677,-1.9674,-1.9611,-1.9609,-1.9689,-1.9689,-1.9689,-1.9689,-1.9689,-1.9689,-1.9942,-1.9946,-1.9925,-1.992,-1.99,-1.9893,-1.9884,-1.987,-1.9853,-1.9842,-1.9831,-1.981,-1.9784,-1.9767,-1.9754,-1.9745,-1.9742,-1.9759,-1.9746,-1.9688,-1.9678,-1.9669,-1.9668,-1.9758,-1.9759,-1.9809,-1.981,-1.981]},{"header":{"parameterUnit":"m.s-1","parameterCategory":1,"la1":30.2991,"la2":30.254,"lo1":-89.0895,"lo2":-89.0444,"dy":0.0017,"dx":0.0017,"nx":28,"ny":28,"refTime":"2024-05-10T09:00:00:Z","depth":0,"parameterNumber":3,"parameterNumberName":"V-component_of_WINDS"},"data":[0,0,0,0,0,0,0,0,0,0,0,0,0,0,0,0,0,0,0,0,0,0,0,0,0,0,0,0,0,0,0,0,0,0,0,0,0,0,0,0,0,0,0,0,0,0,0,0,0,0,0,0,0,0,0,0,0,0,-2.1811,-2.1812,0,-2.1883,-2.1884,-2.1884,-2.1911,-2.1911,-2.1911,-2.1911,-2.1982,-2.1984,-2.1986,0,0,0,0,0,0,0,0,0,0,0,0,0,-2.1697,-2.1699,-2.1811,-2.1812,-2.1813,-2.1883,-2.1884,-2.1885,-2.1911,-2.1911,-2.1911,-2.1911,-2.1981,-2.1984,-2.1986,0,0,0,0,0,0,0,0,0,0,0,0,0,-2.1755,-2.17,-2.1811,-2.1835,-2.1838,-2.1882,-2.1884,-2.1885,-2.1911,-2.1911,-2.1911,-2.191,-2.1981,-2.1984,-2.1987,-2.2013,0,0,-2.1996,-2.1998,0,0,0,0,0,0,0,0,-2.1752,-2.1759,-2.183,-2.1833,-2.1836,-2.1888,-2.187,-2.1928,-2.1911,-2.1883,-2.1911,-2.191,-2.1951,-2.1956,-2.1971,-2.2016,-2.2019,-2.1997,-2.1999,-2.2,-2.2001,0,0,0,0,0,0,0,-2.1748,-2.1757,-2.1839,-2.1831,-2.1835,-2.1842,-2.185,-2.1881,-2.1918,-2.1886,-2.1888,-2.1896,-2.1952,-2.1967,-2.1972,-2.202,-2.1997,-2.1999,-2.2001,-2.2003,-2.2092,-2.2093,0,0,0,0,0,0,-2.174,-2.1753,-2.1837,-2.1842,-2.1793,-2.1844,-2.1853,-2.1872,-2.1918,-2.1924,-2.1896,-2.1897,-2.1962,-2.1969,-2.1975,-2.201,-2.2,-2.2003,-2.2005,-2.2092,-2.2092,-2.2093,0,0,0,0,0,0,-2.1738,-2.1747,-2.1834,-2.1798,-2.181,-2.1846,-2.1867,-2.1873,-2.1888,-2.1926,-2.1932,-2.1905,-2.1962,-2.1971,-2.2004,-2.2013,-2.2004,-2.2007,-2.2091,-2.2092,-2.2093,-2.2079,0,0,0,0,0,0,-2.1734,-2.1746,-2.1757,-2.1798,-2.1811,-2.1862,-2.1868,-2.1875,-2.1894,-2.1895,-2.1935,-2.1942,-2.1963,-2.1999,-2.2007,-2.2017,-2.201,-2.2091,-2.2092,-2.2092,-2.2078,-2.2079,-2.2079,0,0,0,0,0,-2.173,-2.1749,-2.1757,-2.1767,-2.1825,-2.1862,-2.187,-2.1894,-2.1894,-2.1905,-2.1929,-2.194,-2.201,-2.2002,-2.2011,-2.2022,-2.209,-2.2091,-2.2092,-2.2078,-2.2079,-2.2079,0,0,0,0,0,0,-2.1707,-2.1755,-2.1764,-2.1797,-2.1826,-2.1867,-2.1881,-2.1893,-2.1922,-2.1922,-2.195,-2.1959,-2.199,-2.2009,-2.1999,-2.2051,-2.2051,-2.2054,-2.2037,-2.2038,-2.2038,-2.2033,-2.2012,0,0,0,0,0,-2.1705,-2.1732,-2.1773,-2.1798,-2.1812,-2.1844,-2.1861,-2.1877,-2.1908,-2.1919,-2.1946,-2.1975,-2.2003,-2.2021,-2.2049,-2.2081,-2.2091,-2.2093,-2.2093,-2.2094,-2.2096,-2.2116,-2.2118,-2.2096,-2.2096,-2.2096,0,0,-2.1703,-2.1733,-2.1748,-2.1794,-2.1818,-2.1845,-2.1854,-2.1881,-2.1902,-2.1923,-2.1957,-2.1977,-2.2011,-2.2044,-2.206,-2.2061,-2.2104,-2.2095,-2.2095,-2.2097,-2.2117,-2.2119,-2.2121,-2.2097,-2.2097,-2.2097,0,0,-2.1713,-2.1737,-2.1762,-2.1786,-2.1823,-2.1844,-2.185,-2.189,-2.1905,-2.1939,-2.1956,-2.1981,-2.2029,-2.2053,-2.2071,-2.2091,-2.2103,-2.2099,-2.2101,-2.212,-2.2122,-2.2123,-2.2132,-2.2134,-2.2102,-2.2102,-2.2102,0,-2.1705,-2.1747,-2.1773,-2.1801,-2.1821,-2.1843,-2.1868,-2.189,-2.1933,-2.1947,-2.1947,-2.201,-2.2034,-2.2073,-2.2078,-2.2092,-2.21,-2.2095,-2.2119,-2.2121,-2.2123,-2.2132,-2.2135,-2.2101,-2.2101,-2.2101,-2.2101,0,-2.1736,-2.1765,-2.178,-2.1823,-2.1845,-2.1871,-2.1901,-2.192,-2.1935,-2.1956,-2.1991,-2.2021,-2.2057,-2.2067,-2.2081,-2.2109,-2.2109,-2.2114,-2.2115,-2.2124,-2.2133,-2.2136,-2.21,-2.21,-2.2101,-2.2101,0,0,-2.1733,-2.1791,-2.1796,-2.1817,-2.1859,-2.1882,-2.1909,-2.1945,-2.1961,-2.199,-2.2015,-2.2055,-2.2061,-2.2082,-2.2099,-2.2115,-2.2131,-2.2119,-2.212,-2.2121,-2.2165,-2.2162,-2.2165,-2.2139,-2.2139,-2.214,-2.2163,0,-2.1749,-2.18,-2.1825,-2.1865,-2.1893,-2.1914,-2.1938,-2.1967,-2.1988,-2.2014,-2.2037,-2.2066,-2.2071,-2.2084,-2.2101,-2.2126,-2.2141,-2.2124,-2.2162,-2.2163,-2.2154,-2.2169,-2.2166,-2.2186,-2.2166,-2.2167,-2.2167,0,-2.1774,-2.1805,-2.1849,-2.189,-2.1902,-2.1923,-2.1959,-2.1983,-2.2017,-2.2031,-2.2055,-2.2072,-2.2102,-2.21,-2.2142,-2.213,-2.2147,-2.2162,-2.2163,-2.2169,-2.2166,-2.2176,-2.2193,-2.2196,-2.2172,-2.2172,-2.2172,0,-2.1769,-2.1821,-2.1854,-2.1871,-2.1919,-2.1934,-2.1955,-2.1988,-2.2008,-2.2039,-2.2052,-2.2085,-2.2104,-2.2129,-2.2155,-2.2151,-2.2195,-2.2195,-2.2208,-2.2207,-2.2217,-2.2216,-2.2237,-2.2226,-2.2226,-2.2225,-2.2225,0,-2.1785,-2.1811,-2.1853,-2.1873,-2.1903,-2.1932,-2.196,-2.1983,-2.2012,-2.2037,-2.2057,-2.208,-2.2112,-2.2139,-2.2159,-2.2192,-2.2199,-2.2212,-2.2217,-2.2211,-2.221,-2.2223,-2.2223,-2.2226,-2.2226,-2.2226,-2.2226,0,-2.1784,-2.1813,-2.1851,-2.1894,-2.1906,-2.1926,-2.1963,-2.1984,-2.2006,-2.2038,-2.2047,-2.2082,-2.2115,-2.2143,-2.2186,-2.2199,-2.2234,-2.2239,-2.2223,-2.2226,-2.2238,-2.2237,-2.227,-2.2276,-2.2259,-2.2259,-2.2259,0,-2.1793,-2.1813,-2.186,-2.1879,-2.1899,-2.1929,-2.1951,-2.1979,-2.2001,-2.2041,-2.2057,-2.2092,-2.2122,-2.2174,-2.2203,-2.2236,-2.2243,-2.2253,-2.2249,-2.2242,-2.2245,-2.2244,-2.2247,-2.2253,-2.2253,-2.2253,-2.2253,0,-2.1805,-2.1819,-2.185,-2.1886,-2.1911,-2.1941,-2.1971,-2.1985,-2.2019,-2.2042,-2.2077,-2.21,-2.2145,-2.218,-2.2217,-2.2238,-2.2252,-2.2254,-2.2259,-2.2254,-2.2244,-2.2251,-2.2225,-2.2254,-2.2254,-2.2254,-2.2254,-2.2253,-2.181,-2.1831,-2.1867,-2.1901,-2.1927,-2.1955,-2.1977,-2.2003,-2.2033,-2.2073,-2.2088,-2.2124,-2.2158,-2.2209,-2.223,-2.2259,-2.226,-2.2267,-2.2269,-2.2271,-2.2271,-2.2239,-2.2265,-2.2265,-2.2265,-2.2265,-2.2265,0,-2.1825,-2.185,-2.1881,-2.1923,-2.195,-2.1962,-2.1996,-2.2017,-2.2049,-2.208,-2.2109,-2.215,-2.2184,-2.2217,-2.2253,-2.2269,-2.2277,-2.2278,-2.2278,-2.2282,-2.2266,-2.2259,-2.2272,-2.2272,-2.2272,-2.2272,-2.2272,-2.2272,-2.1836,-2.1872,-2.189,-2.1939,-2.1963,-2.2,-2.2019,-2.2045,-2.207,-2.2115,-2.2144,-2.2166,-2.2197,-2.2236,-2.2268,-2.2277,-2.229,-2.2289,-2.23,-2.2284,-2.2283,-2.2282,-2.2276,-2.2292,-2.2292,-2.2314,-2.2314,-2.2314]}]]